This demonstration page uses our WeatherBlox Daily Observations layout. Learn more.

Left ArrowRight Arrow

Hourly Observations for August 8, 2016

Temp ( °F °C ) Dew Point ( °F °C ) Humidity (%) Winds ( mph kmh ) Pressure ( in mb ) Visibility ( mi km ) Precip ( " mm )
12:19 am 00:19 Clear 66 19 63 17 88 88 Calm 30 1016 10 16.0934 N/A
12:38 am 00:38 Clear 66 19 63 17 88 88 Calm 30 1016 10 16.0934 N/A
12:59 am 00:59 Clear 64 18 63 17 94 94 Calm 30 1016 10 16.0934 N/A
1:18 am 01:18 Clear 66 19 63 17 88 88 ENE 5 7 30 1016 10 16.0934 N/A
1:38 am 01:38 Partly Cloudy 66 19 63 17 88 88 E 6 9 30 1016 10 16.0934 N/A
1:59 am 01:59 Mostly Cloudy 66 19 63 17 88 88 E 7 11 30 1016 10 16.0934 N/A
2:18 am 02:18 Partly Cloudy 66 19 63 17 88 88 E 7 11 30 1016 10 16.0934 N/A
2:38 am 02:38 Clear 66 19 63 17 88 88 E 6 9 30 1016 10 16.0934 N/A
2:59 am 02:59 Clear 66 19 63 17 88 88 E 6 9 30 1016 10 16.0934 N/A
3:18 am 03:18 Clear 64 18 63 17 94 94 E 5 7 30 1016 10 16.0934 N/A
3:38 am 03:38 Clear 64 18 61 16 88 88 E 5 7 30 1016 10 16.0934 N/A
3:59 am 03:59 Clear 64 18 61 16 88 88 E 3 6 30 1016 10 16.0934 N/A
4:18 am 04:18 Clear 63 17 61 16 94 94 E 3 6 30 1016 10 16.0934 N/A
4:38 am 04:38 Clear 64 18 61 16 88 88 Calm 30 1016 10 16.0934 N/A
4:59 am 04:59 Clear 63 17 61 16 94 94 E 5 7 30 1016 10 16.0934 N/A
5:18 am 05:18 Mostly Cloudy 63 17 59 15 88 88 Calm 30 1016 10 16.0934 N/A
5:39 am 05:39 Partly Cloudy 63 17 59 15 88 88 E 5 7 30 1016 10 16.0934 N/A
5:59 am 05:59 Clear 64 18 59 15 83 83 ESE 6 9 30 1016 10 16.0934 N/A
6:18 am 06:18 Clear 64 18 59 15 83 83 E 6 9 30.03 1017 10 16.0934 N/A
6:39 am 06:39 Clear 64 18 59 15 83 83 E 3 6 30.03 1017 10 16.0934 N/A
6:59 am 06:59 Sunny 63 17 59 15 88 88 E 3 6 30.03 1017 10 16.0934 N/A
7:18 am 07:18 Sunny 63 17 59 15 88 88 Calm 30.03 1017 10 16.0934 N/A
7:39 am 07:39 Sunny 64 18 61 16 88 88 Calm 30.03 1017 10 16.0934 N/A
7:59 am 07:59 Sunny 64 18 61 16 88 88 Calm 30.03 1017 10 16.0934 N/A
8:18 am 08:18 Sunny 66 19 61 16 83 83 Calm 30.06 1018 10 16.0934 N/A
8:39 am 08:39 Sunny 66 19 61 16 83 83 Calm 30.06 1018 10 16.0934 N/A
8:59 am 08:59 Sunny 68 20 61 16 78 78 E 3 6 30.06 1018 10 16.0934 N/A
9:18 am 09:18 Sunny 70 21 61 16 73 73 E 6 9 30.06 1018 10 16.0934 N/A
9:39 am 09:39 Sunny 70 21 63 17 78 78 E 6 9 30.06 1018 10 16.0934 N/A
9:59 am 09:59 Sunny 73 23 63 17 69 69 E 5 7 30.03 1017 10 16.0934 N/A
10:18 am 10:18 Sunny 73 23 63 17 69 69 E 7 11 30.03 1017 10 16.0934 N/A
10:39 am 10:39 Sunny 75 24 63 17 65 65 E 7 11 30.03 1017 10 16.0934 N/A
10:59 am 10:59 Sunny 75 24 63 17 65 65 E 7 11 30.03 1017 10 16.0934 N/A
11:18 am 11:18 Sunny 77 25 64 18 65 65 E 6 9 30.03 1017 10 16.0934 N/A
11:39 am 11:39 Sunny 77 25 63 17 61 61 E 8 13 30.03 1017 10 16.0934 N/A
11:59 am 11:59 Sunny 77 25 64 18 65 65 ESE 8 13 30.03 1017 10 16.0934 N/A
12:18 pm 12:18 Sunny 79 26 64 18 61 61 E 6 9 30.03 1017 10 16.0934 N/A
12:39 pm 12:39 Sunny 81 27 64 18 58 58 E 8 13 30 1016 10 16.0934 N/A
12:59 pm 12:59 Sunny 81 27 64 18 58 58 E 9 15 30 1016 10 16.0934 N/A
1:18 pm 13:18 Sunny 81 27 64 18 58 58 ENE 8 13 30.03 1017 10 16.0934 N/A
1:39 pm 13:39 Sunny 82 28 63 17 51 51 ENE 9 15 30 1016 10 16.0934 N/A
1:59 pm 13:59 Sunny 82 28 64 18 55 55 NE 8 13 30 1016 10 16.0934 N/A
2:18 pm 14:18 Sunny 82 28 64 18 55 55 E 8 13 30 1016 10 16.0934 N/A
2:39 pm 14:39 Sunny 84 29 64 18 51 51 ENE 7 11 30 1016 10 16.0934 N/A
2:59 pm 14:59 Sunny 84 29 63 17 48 48 NE 10 17 30 1016 10 16.0934 N/A
3:18 pm 15:18 Sunny 84 29 63 17 48 48 E 9 15 30 1016 10 16.0934 N/A
3:39 pm 15:39 Sunny 84 29 63 17 48 48 E 7 11 30 1016 10 16.0934 N/A
3:59 pm 15:59 Sunny 84 29 64 18 51 51 ENE 8 13 30 1016 10 16.0934 N/A
4:18 pm 16:18 Partly Cloudy 84 29 64 18 51 51 ENE 8 13 29.97 1015 10 16.0934 N/A
4:27 pm 16:27 Partly Cloudy 84 29 63 17 48 48 ENE 7 11 29.97 1015 10 16.0934 N/A
4:54 pm 16:54 undefined 82 28 64 18 55 55 ENE 9 15 29.97 1015 10 16.0934 N/A
5:14 pm 17:14 Partly Cloudy 82 28 64 18 55 55 ENE 6 9 29.97 1015 10 16.0934 N/A
5:34 pm 17:34 Partly Cloudy 82 28 64 18 55 55 E 5 7 29.97 1015 10 16.0934 N/A
5:54 pm 17:54 Partly Cloudy 82 28 64 18 55 55 E 6 9 29.97 1015 10 16.0934 N/A
6:14 pm 18:14 Partly Cloudy 81 27 66 19 62 62 ENE 5 7 29.97 1015 10 16.0934 N/A
6:34 pm 18:34 Sunny 81 27 66 19 62 62 ENE 5 7 29.97 1015 10 16.0934 N/A
6:54 pm 18:54 Sunny 81 27 66 19 62 62 NE 5 7 29.97 1015 10 16.0934 N/A
7:14 pm 19:14 Sunny 81 27 64 18 58 58 NE 6 9 29.97 1015 10 16.0934 N/A
7:34 pm 19:34 Sunny 79 26 66 19 65 65 NE 5 7 29.97 1015 10 16.0934 N/A
7:54 pm 19:54 Sunny 77 25 66 19 69 69 NE 5 7 29.97 1015 10 16.0934 N/A
8:14 pm 20:14 Sunny 75 24 66 19 74 74 NE 5 7 29.97 1015 10 16.0934 N/A
8:34 pm 20:34 Sunny 73 23 66 19 78 78 ENE 5 7 29.97 1015 10 16.0934 N/A
8:54 pm 20:54 Clear 73 23 64 18 74 74 NE 5 7 29.97 1015 10 16.0934 N/A
9:14 pm 21:14 Clear 72 22 64 18 78 78 NNE 5 7 29.97 1015 10 16.0934 N/A
9:34 pm 21:34 Clear 72 22 64 18 78 78 NE 7 11 29.97 1015 10 16.0934 N/A
9:54 pm 21:54 Clear 68 20 61 16 78 78 ENE 6 9 30 1016 10 16.0934 N/A
10:14 pm 22:14 Clear 70 21 61 16 73 73 NE 3 6 29.97 1015 10 16.0934 N/A
10:34 pm 22:34 Clear 68 20 61 16 78 78 NE 5 7 30 1016 10 16.0934 N/A
10:54 pm 22:54 Clear 66 19 61 16 83 83 Calm 30 1016 10 16.0934 N/A
11:14 pm 23:14 Clear 66 19 61 16 83 83 Calm 30 1016 10 16.0934 N/A
11:34 pm 23:34 Clear 64 18 61 16 88 88 ENE 3 6 30 1016 10 16.0934 N/A
11:54 pm 23:54 Clear 66 19 61 16 83 83 Calm 30.03 1017 10 16.0934 N/A

Powered by AerisWeather